Other Public Products
Issued by NWS Grand Forks, ND

Home | Current Version | Previous Version | Graphics & Text | Print | Product List | Glossary On
Versions: 1 2 3 4 5 6 7 8 9 10 11 12 13 14 15 16 17 18 19 20 21 22 23 24 25 26 27 28 29 30 31 32 33 34 35 36 37 38 39 40 41 42 43 44 45 46 47 48 49 50
000
FPUS83 KFGF 270231
OPUFGF
PRAIRIE TO PINES WEATHER ROUNDUP
NATIONAL WEATHER SERVICE EASTERN NORTH DAKOTA/GRAND FORKS ND
900 PM CDT TUE MAY 26 2015

 **SATELLITE DATA USED TO AUGMENT SKY COVER AT AUTOMATED STATIONS**
 *****  WEATHER ACROSS EASTERN NORTH DAKOTA  *****

CITY           SKY/WX    TMP DP  RH WIND       PRES   REMARKS
GRAND FORKS    MOCLDY    70  49  47 W8        29.72S
GRAND FORKS AF MOCLDY    72  52  48 NW3       29.74S
GRAND CITY NWS   N/A     64 N/A N/A W3          N/A
BUXTON         NOT AVBL
DEVILS LAKE    PTCLDY    72  43  35 NW10      29.80R
FARGO          MOCLDY    68  52  56 SW7       29.75F
WAHPETON ARPT  CLOUDY    64  55  72 S7        29.79R
$$

 *****  WEATHER ACROSS CENTRAL AND WESTERN NORTH DAKOTA  *****

CITY           SKY/WX    TMP DP  RH WIND       PRES   REMARKS
JAMESTOWN      PTCLDY    70  47  43 NW14      29.81R
BISMARCK       PTCLDY    67  54  63 CALM      29.87S
MINOT          MOCLDY    68  49  50 S3        29.86F
MINOT AFB      MOCLDY    66  64  90 S9        29.84F
GARRISON         N/A     73  44  35 CALM      29.86R
WILLISTON      CLEAR     72  42  34 W3        29.86S
DICKINSON      CLEAR     67  48  50 S6        29.89R
HETTINGER      CLEAR     65  48  54 S3        29.93R
$$

 *****  OTHER OBSERVATIONS NORTHEAST NORTH DAKOTA  *****

CITY           SKY/WX    TMP DP  RH WIND       PRES   REMARKS
WALHALLA         N/A     72  41  33 MISG      29.76R
LANGDON        FAIR      73  43  33 NW10      29.80R
CAVALIER       FAIR      73  41  31 NW6       29.75R
GRAFTON        FAIR      73  46  38 NW5       29.74R HAZE
CANDO          FAIR      70  45  40 NW14      29.81R
FORT TOTTEN      N/A     71  46  41 NW5       29.95S
ROLLA          FAIR      70  41  35 NW12      29.84R
RUGBY          NOT AVBL
 ***** THE ABOVE OBSERVATIONS ARE NON NWS ARE NOT QUALITY
        CONTROLLED AND MAY MIS-REPORT RAIN FOR SNOW...
$$

 *****  OTHER OBSERVATIONS SOUTHEAST NORTH DAKOTA *****

CITY           SKY/WX    TMP DP  RH WIND       PRES   REMARKS
COOPERSTOWN    NOT AVBL
VALLEY CITY    FAIR      68  54  60 SW12      29.80R
OAKES            N/A     64  55  72 W9        29.83R
GWINNER        NOT AVBL
SHEYENNE NWR     N/A     64  54  68 SW6       29.95S
BUFFALO        NOT AVBL
WYNDMERE         N/A     66  52  59 W7          N/A
 ***** THE ABOVE OBSERVATIONS ARE NON NWS ARE NOT QUALITY
       CONTROLLED AND MAY MIS-REPORT RAIN FOR SNOW...
$$

  *****  WEATHER ACROSS NORTHERN MINNESOTA  *****

CITY           SKY/WX    TMP DP  RH WIND       PRES   REMARKS
FLAG ISLAND    TSTM      72  45  37 N14G36    29.73S
WARROAD        PTCLDY    64  57  77 S3        29.75R
ROSEAU         PTCLDY    68  54  60 CALM      29.73R
HALLOCK        PTCLDY    72  43  35 N6        29.73R
THF RVR FALLS  PTCLDY    70  54  56 S8        29.76S
HALSTAD          N/A     65  55  72 S6          N/A
FOSSTON        MOCLDY    64  54  68 CALM      29.79S
BAUDETTE       MOCLDY    69  53  56 SW5       29.73S
WASKISH        MOCLDY    66  55  68 CALM      29.75R
CROOKSTON      PTCLDY    66  55  68 S7        29.75R
$$
  *****  WEATHER ACROSS CENTRAL AND WEST MINNESOTA  *****

CITY           SKY/WX    TMP DP  RH WIND       PRES   REMARKS
BEMIDJI        CLOUDY    66  52  60 W7        29.78R
PARK RAPIDS    CLOUDY    66  56  70 SW6       29.78S
WADENA         CLOUDY    64  54  68 CALM      29.80R
DETROIT LAKES  CLOUDY    66  55  68 CALM      29.81R
MOORHEAD       MOCLDY    70  55  60 S3        29.77R
FERGUS FALLS   CLOUDY    66  55  68 S6        29.79R
ELBOW LAKE     FAIR      63  57  79 SW3       29.80R
MORRIS MN      CLOUDY    64  57  77 W5        29.80S
STAPLES        CLOUDY    61  54  77 CALM      29.80R
WHEATON        CLOUDY    64  55  72 S8        29.80F
$$
  *****  WEATHER ELSEWHERE ACROSS MINNESOTA  *****

CITY           SKY/WX    TMP DP  RH WIND       PRES   REMARKS
DULUTH         CLOUDY    58  50  75 N5        29.77F
INTRNTL FALLS  MOCLDY    64  54  69 CALM      29.73F
ELY            NOT AVBL
CLOQUET        CLOUDY    57  48  72 NW3       29.78S
BRAINERD       CLOUDY    60  54  80 CALM      29.79S
HIBBING        CLOUDY    58  52  80 CALM      29.77F
ALEXANDRIA     CLOUDY    62  54  74 SW3       29.82R
SAINT CLOUD    CLOUDY    59  56  89 CALM      29.78S
MINNEAPOLIS    CLOUDY    58  56  93 NW6       29.78R
$$

  *****  WEATHER ACROSS SOUTH DAKOTA  *****

CITY           SKY/WX    TMP DP  RH WIND       PRES   REMARKS
SIOUX FALLS    CLOUDY    62  53  72 W3        29.85R
BROOKINGS      CLOUDY    64  54  68 NW3       29.86R
WATERTOWN      MOCLDY    62  55  77 W6        29.84S
HURON          CLOUDY    66  51  58 NW10      29.86R
SISSETON         N/A     67  50  54 W15       29.77F
ABERDEEN       CLOUDY    63  55  75 W7        29.84R
MITCHELL       MOCLDY    70  52  52 CALM      29.86R
PIERRE         CLEAR     70  45  40 E5        29.88R
MOBRIDGE       PTCLDY    70  52  52 CALM      29.85S
RAPID CITY     PTCLDY    62  50  64 S7        29.95R
$$

  *****  SOME WEATHER IN NEARBY STATES *****

CITY           SKY/WX    TMP DP  RH WIND       PRES   REMARKS
GLASGOW MT     MOCLDY    74  40  29 CALM      29.86S
GREAT FALLS MT PTCLDY    62  49  62 NE9       29.94F
CHEYENNE WY    LGT RAIN  55  47  74 NW5       30.07R
SCOTTSBLUFF NE PTCLDY    64  52  64 SE8       29.99R
OMAHA NE       MOCLDY    66  56  70 W5        29.86R
DES MOINES IA  MOCLDY    65  60  84 W7        29.82R
DAVENPORT IA   CLOUDY    67  61  81 SW7       29.81R
CHICAGO IL     PTCLDY    68  61  78 SW7       29.82R
EAU CLAIRE WI  RAIN      58  56  93 NW5       29.72R
LA CROSSE WI   CLOUDY    63  59  87 W13       29.72R
$$

  *****  SOME NATIONAL WEATHER *****

CITY           SKY/WX    TMP DP  RH WIND       PRES   REMARKS
LA GUARDIA NY  PTCLDY    73  60  63 S10       30.15R
RALEIGH NC     MOCLDY    77  69  76 S9        30.22R
ATLANTA GA     CLOUDY    67  64  90 CALM      30.20R
NEW ORLEANS LA PTCLDY    80  69  69 SE3       30.09R
OKLAHOMA CITY  CLOUDY    73  68  84 S10       29.95S
ALBUQUERQUE NM MOCLDY    73  38  27 CALM      30.06R THUNDER
SALT LAKE CITY CLOUDY    62  49  62 S6        30.02R
LOS ANGELES CA MOCLDY    61  55  82 W16       29.98R
BOISE ID       MOSUNNY   74  42  31 VRB6      29.86S
SEATTLE WA     PTSUNNY   66  50  56 NW6       30.02S
$$

*** WEATHER ACROSS MANITOBA...SASKATCHEWAN AND ONTARIO ***
                ***ONTARIO***

CITY           SKY/WX    TMP DP  RH WIND       PRES   REMARKS
GERALDTON      CLOUDY    63  52  67 SE3       29.75F
THUNDER BAY    MOCLDY    57  52  82 CALM      29.76F
SIOUX LOOKOUT  MOCLDY    66  50  55 W3        29.72S
TORONTO        PTCLDY    75  63  64 S12       29.97R
BIG TROUT LK   CLOUDY    41  36  81 NE9G20    29.83R
PICKLE LAKE    MOCLDY    72  45  37 SW8       29.67S
DRYDEN         CLEAR     70  45  40 SW6       29.74S
KENORA         MOCLDY    64  50  59 SE7       29.74F
$$
                *** MANITOBA***

CITY           SKY/WX    TMP DP  RH WIND       PRES   REMARKS
BRANDON        MOCLDY    68  48  49 SW5       29.81R
DAUPHIN        CLEAR     61  50  67 N17G23    29.85R
ISLAND LAKE    MOCLDY    43  36  75 N12G18    29.90R
PILOT MOUND      N/A     68  45  42 NE7         N/A
THE PAS        PTCLDY    50  39  66 VRB2      29.96R
THOMPSON       PTCLDY    45  28  53 NE2       29.99R
WINNIPEG       PTCLDY    70  52  52 N12       29.75R
LYNN LAKE      CLEAR     50  19  29 N10       29.98R
CHURCHILL      PTCLDY    34  25  69 SE8       30.01F
GILLAM         CLEAR     37  21  52 NE8       30.00
$$
                ***SASKATCHEWAN***

CITY           SKY/WX    TMP DP  RH WIND       PRES   REMARKS
ESTEVAN        MOCLDY    72  48  43 S2        29.86S
KINDERSLEY     SHOWER    70  43  37 VRB10G21  29.90R
LLOYDMINSTER   MOSUNNY   68  34  28 NE12      29.93R
PRINCE ALBERT  CLOUDY    63  36  36 NE12G20   29.93R
REGINA         MOCLDY    73  43  33 W13       29.84R



USA.gov is the U.S. government's official web portal to all federal, state and local government web resources and services.